TimeEDT,TemperatureF,Dew PointF,Humidity,Sea Level PressureIn,VisibilityMPH,Wind Direction,Wind SpeedMPH,Gust SpeedMPH,PrecipitationIn,Events,Conditions,WindDirDegrees,DateUTC
12:51 AM,62.1,61.0,96,30.22,4.0,Calm,Calm,-,N/A,,Clear,0,2013-07-17 04:51:00
1:51 AM,62.1,61.0,96,30.21,6.0,Calm,Calm,-,N/A,,Partly Cloudy,0,2013-07-17 05:51:00
2:51 AM,63.0,61.0,93,30.21,8.0,Calm,Calm,-,N/A,,Mostly Cloudy,0,2013-07-17 06:51:00
3:51 AM,62.1,60.1,93,30.20,3.0,Calm,Calm,-,N/A,,Partly Cloudy,0,2013-07-17 07:51:00
4:24 AM,60.8,60.8,100,30.23,4.0,Calm,Calm,-,N/A,,Partly Cloudy,0,2013-07-17 08:24:00
4:51 AM,61.0,60.1,97,30.20,6.0,Calm,Calm,-,N/A,,Clear,0,2013-07-17 08:51:00
5:51 AM,61.0,59.0,93,30.20,6.0,Calm,Calm,-,N/A,,Mostly Cloudy,0,2013-07-17 09:51:00
6:51 AM,66.9,64.9,93,30.21,5.0,Calm,Calm,-,N/A,,Clear,0,2013-07-17 10:51:00
7:51 AM,72.0,66.0,81,30.21,9.0,WSW,10.4,-,N/A,,Clear,240,2013-07-17 11:51:00
8:51 AM,75.0,66.0,73,30.22,10.0,SW,6.9,-,N/A,,Clear,230,2013-07-17 12:51:00
9:51 AM,79.0,66.0,64,30.20,10.0,SW,9.2,-,N/A,,Clear,230,2013-07-17 13:51:00
10:51 AM,82.0,64.9,56,30.19,10.0,WSW,6.9,-,N/A,,Clear,240,2013-07-17 14:51:00
11:51 AM,84.0,64.9,53,30.17,10.0,West,9.2,-,N/A,,Scattered Clouds,270,2013-07-17 15:51:00
12:51 PM,84.9,66.0,53,30.15,10.0,WSW,9.2,16.1,N/A,,Clear,250,2013-07-17 16:51:00
1:51 PM,87.1,68.0,53,30.13,10.0,SW,10.4,-,N/A,,Unknown,220,2013-07-17 17:51:00
2:51 PM,86.0,68.0,55,30.11,10.0,SW,11.5,17.3,N/A,,Mostly Cloudy,230,2013-07-17 18:51:00
3:51 PM,87.1,68.0,53,30.08,10.0,WSW,13.8,19.6,N/A,,Partly Cloudy,240,2013-07-17 19:51:00
4:51 PM,82.9,68.0,60,30.04,10.0,SW,13.8,19.6,N/A,,Scattered Clouds,230,2013-07-17 20:51:00
5:51 PM,82.0,70.0,67,30.06,9.0,WSW,6.9,-,N/A,,Scattered Clouds,250,2013-07-17 21:51:00
6:51 PM,80.1,68.0,67,30.06,9.0,WSW,9.2,20.7,N/A,,Partly Cloudy,240,2013-07-17 22:51:00
7:51 PM,79.0,70.0,74,30.06,8.0,WSW,8.1,19.6,N/A,,Mostly Cloudy,250,2013-07-17 23:51:00
8:23 PM,75.2,71.6,89,30.09,1.8,WSW,8.1,16.1,0.03,Rain,Heavy Rain,250,2013-07-18 00:23:00
8:29 PM,75.2,71.6,89,30.09,3.0,WSW,4.6,16.1,0.03,Rain,Light Rain,240,2013-07-18 00:29:00
8:51 PM,73.0,71.1,93,30.03,6.0,SW,6.9,-,0.03,,Partly Cloudy,220,2013-07-18 00:51:00
9:51 PM,75.0,72.0,90,30.04,6.0,Calm,Calm,-,N/A,,Mostly Cloudy,0,2013-07-18 01:51:00
9:58 PM,75.2,71.6,89,30.08,6.0,WSW,4.6,-,N/A,Thunderstorm,Mostly Cloudy,240,2013-07-18 01:58:00
10:14 PM,75.2,73.4,94,30.08,5.0,Calm,Calm,-,0.00,Rain-Thunderstorm,Light Rain,0,2013-07-18 02:14:00
10:24 PM,75.2,73.4,94,30.09,3.0,North,8.1,-,0.03,Rain-Thunderstorm,Light Rain,360,2013-07-18 02:24:00
10:27 PM,73.4,71.6,94,30.10,1.8,NNW,9.2,-,0.10,Rain-Thunderstorm,Heavy Thunderstorms and Rain,340,2013-07-18 02:27:00
10:40 PM,71.6,69.8,94,30.09,4.0,Calm,Calm,-,0.20,Rain-Thunderstorm,Light Thunderstorms and Rain,0,2013-07-18 02:40:00
10:51 PM,72.0,70.0,93,30.06,6.0,Calm,Calm,-,0.20,,Mostly Cloudy,0,2013-07-18 02:51:00
11:30 PM,71.6,69.8,94,30.10,5.0,West,3.5,-,N/A,,Scattered Clouds,260,2013-07-18 03:30:00
11:51 PM,71.1,70.0,96,30.06,5.0,WSW,3.5,-,N/A,,Clear,250,2013-07-18 03:51:00